User: anonymous   Login
Location: Allos
(44.2333°N, 6.6333°E)
Time: 06:48:06
(UTC+00:00)
Language:

ZACube-1 - Orbit

View from above orbital plane
View from above orbital plane
View from above satellite
View from above satellite

Ground track
Ground track

The orbit data is extracted from the following two-line orbital elements,

1 39417U 13066B   21130.89758588  .00000225  00000-0  34557-4 0  9992
2 39417  97.5912 117.1743 0057093 284.7618  74.7273 14.81497838403519
Epoch (UTC): 10 May 2021 21:32:31
Eccentricity: 0.0057093
inclination: 97.5912°
perigee height: 584 km
apogee height: 664 km
right ascension of ascending node: 117.1743°
argument of perigee: 284.7618°
revolutions per day: 14.81497838
mean anomaly at epoch: 74.7273°
orbit number at epoch: 40351

The dashed part of the orbit path shows where the satellite is in the earth's shadow,  

DLR